Regional Weather Roundup
Issued by NWS

Home | Current Version | Previous Version | Text Only | Print | Product List | Glossary On
Versions: 1 2 3 4 5 6 7 8 9 10 11 12 13 14 15 16 17 18 19 20 21 22 23 24 25 26 27 28 29 30 31 32 33 34 35 36 37 38 39 40 41 42 43 44 45 46 47 48 49 50
000
ASUS44 KJAN 242110
RWRMS

MISSISSIPPI HOURLY WEATHER ROUNDUP
NATIONAL WEATHER SERVICE JACKSON MS
400 PM CDT SUN SEP 24 2017

NOTE: "FAIR: INDICATES FEW OR NO CLOUDS BELOW 12,000 FEET WITH NO
SIGNIFICANT WEATHER AND/OR OBSTRUCTIONS TO VISIBILITY.

MSZ001>002-007>008-010>013-018>021-025>028-034>036-242200-
NORTHWEST MISSISSIPPI

CITY           SKY/WX    TMP DP  RH WIND       PRES   REMARKS
BATESVILLE     FAIR      89  65  46 CALM      29.96S HX  90
CLARKSDALE       N/A     90  68  48 E8        29.94F HX  93
CLEVELAND      MOCLDY    91  65  41 E13       29.92F HX  93
GREENWOOD      MOSUNNY   89  65  44 E6        29.93F HX  91
GREENVILLE     MOSUNNY   91  61  36 E12       29.91F HX  91
OLIVE BRANCH   PTSUNNY  N/A N/A N/A SW9       29.96R
TUNICA           N/A    N/A N/A N/A SE5       29.95F
WINONA         FAIR      87  66  49 NE5       29.94F
$$

MSZ003>006-009-014>017-022>024-029>033-037>039-242200-
NORTHEAST MISSISSIPPI

CITY           SKY/WX    TMP DP  RH WIND       PRES   REMARKS
COLUMBUS AFB   SUNNY     89  67  48 E6        29.94F HX  92
GOLDN TRIANGLE MOSUNNY   89  66  46 E10       29.95F HX  91
STARKVILLE     FAIR      86  66  51 CALM      29.96F
TUPELO         PTSUNNY   88  60  38 E8        29.96F
$$

MSZ040-058-242200-
CENTRAL MISSISSIPPI

CITY           SKY/WX    TMP DP  RH WIND       PRES   REMARKS
JACKSON INTL   MOSUNNY   89  66  46 E7        29.91F HX  91
JACKSON HAWKNS MOSUNNY   89  67  47 VRB6      29.91F HX  92
MADISON        FAIR      86  66  51 CALM      29.92F
MERIDIAN KEY   SUNNY     89  64  43 E9        29.93F HX  90
MERIDIAN NAS   MOSUNNY   91  64  40 SE8       29.94F HX  92
RAYMOND          N/A     90  68  48 CALM      29.91F HX  93
VICKSBURG VKS  CLEAR     91  66  43 E8        29.91F HX  94
$$

MSZ059>079-242200-
SOUTH MISSISSIPPI

CITY           SKY/WX    TMP DP  RH WIND       PRES   REMARKS
COLUMBIA       FAIR      86 N/A N/A E7        29.94S
HATTIESBURG    LGT RAIN  76  70  82 N9        29.94F
LAUREL         CLOUDY    70  70 100 CALM      29.96R
MCCOMB         MOSUNNY   89  65  44 VRB5      29.90F HX  91
NATCHEZ        MOSUNNY   89  69  51 VRB7      29.90F HX  93
PINE BELT      TSTM      69  68  96 W7        29.95F
$$

MSZ080>082-242200-
COASTAL MISSISSIPPI

CITY           SKY/WX    TMP DP  RH WIND       PRES   REMARKS
BAY ST LOUIS   MOSUNNY   84  68  58 E9        29.90F
BILOXI         PTSUNNY   84  70  63 SE8       29.89F
PASCAGOULA     MOSUNNY   85  67  54 E8        29.90F
GULFPORT       MOSUNNY   85  71  63 SE10      29.89F HX  90
$$

LAZ007>009-015>016-023>026-242200-
NORTHEAST LOUISIANA

CITY           SKY/WX    TMP DP  RH WIND       PRES   REMARKS
BASTROP        MOCLDY    89  67  48 CALM      29.91F HX  92
TALLULAH/VBURG SUNNY     89  66  46 E6        29.90F HX  91
VIDALIA          N/A    N/A N/A N/A MISG      29.88F
$$



USA.gov is the U.S. government's official web portal to all federal, state and local government web resources and services.